Theta_e
346 346 345 343 342 339 342 345 345 345 345 343 344 344 342 341 337 336 337 336 335 334 334 334 334 334 334 333 332 332 333 334 334
346 342 342 341 339 339 339 342 344 343 344 342 343 342 341 336 336 336 335 335 335 334 333 334 334 335 335 335 335 333 334 332 331
344 341 339 338 337 337 338 341 344 343 343 343 343 340 338 336 336 335 336 337 335 336 337 335 334 333 332 331 331 331 332 332 331
342 340 338 337 336 337 339 340 342 342 343 341 341 337 335 335 335 334 335 336 335 335 333 331 330 330 332 333 333 331 330 330 329
342 338 337 336 335 336 339 340 341 341 342 340 336 333 332 333 335 334 335 336 335 333 330 328 331 331 330 329 329 329 328 327 326
334 333 334 336 337 337 337 340 341 340 339 337 333 331 331 332 332 335 336 336 334 331 330 331 330 328 327 327 327 326 325 324 324
334 330 330 333 335 337 338 339 340 337 337 335 329 330 330 330 332 334 336 335 333 331 332 329 328 327 326 327 325 324 322 322 321
332 331 328 329 328 331 334 336 332 331 335 331 328 329 330 331 332 335 335 333 333 332 330 328 327 326 325 325 323 322 321 320 320
331 328 328 328 328 328 335 333 329 331 334 330 326 328 328 331 335 334 332 332 332 331 329 327 326 325 324 324 322 321 320 319 318
330 327 327 327 329 329 331 326 326 327 330 329 327 326 329 333 329 328 328 330 330 329 329 328 326 325 323 322 321 320 318 318 316
326 327 326 326 328 329 326 322 323 323 326 325 325 326 330 331 329 326 327 329 330 328 328 327 325 324 323 320 318 318 316 316 315
326 326 323 325 328 325 321 320 321 320 321 323 320 327 329 329 325 325 324 326 327 328 327 326 325 323 321 318 317 315 315 314 314
323 324 324 323 324 320 318 320 318 317 318 319 321 323 328 327 323 323 323 324 324 326 326 325 324 321 318 317 315 314 313 312 312
323 323 321 320 320 319 317 316 317 315 316 314 313 314 320 325 324 324 324 324 324 323 323 323 322 319 317 315 314 312 311 310 310
322 321 319 319 315 311 312 313 315 315 313 309 306 308 308 314 321 321 320 321 321 320 319 319 317 317 314 312 310 309 309 309 309
322 319 318 317 315 312 314 312 310 309 309 305 303 303 304 304 305 312 313 311 312 315 317 317 314 312 310 308 307 307 307 307 308
322 320 318 317 316 311 315 314 310 308 309 307 305 300 302 301 301 303 303 306 308 309 312 313 312 309 306 305 304 305 305 306 308
322 320 319 317 313 310 311 312 311 307 309 310 306 300 300 298 298 298 300 300 303 306 306 308 305 304 304 302 302 302 303 305 306
322 322 319 317 316 313 312 313 314 310 306 307 305 308 305 301 295 297 296 297 298 301 302 304 302 300 301 300 300 299 301 303 305
319 319 319 316 315 315 312 312 313 313 310 310 305 305 303 309 305 300 297 297 298 299 301 301 300 299 300 300 299 298 299 301 303
Wind_Speed
12 14 12 12 7 7 8 10 14 13 12 13 14 13 12 10 9 10 10 11 14 12 12 12 14 14 14 14 14 14 15 15 16
17 15 12 11 10 9 9 7 14 14 12 13 13 12 10 8 10 10 9 12 14 13 13 14 15 15 16 17 16 15 17 15 15
16 14 13 11 10 10 10 8 13 14 12 13 12 9 4 7 9 10 9 14 15 15 15 16 17 16 15 15 15 14 15 16 15
14 14 11 10 9 10 9 10 10 11 12 11 11 8 5 7 4 5 8 13 17 15 15 13 14 14 14 15 16 16 16 16 15
12 11 10 10 9 9 9 10 10 9 10 12 11 9 8 7 7 4 10 15 17 17 15 12 13 14 15 14 14 15 14 14 14
14 7 10 7 9 9 9 8 10 10 10 13 12 8 3 4 4 4 14 16 19 17 16 14 14 13 13 13 13 14 13 13 12
7 8 9 6 9 10 10 10 10 10 9 7 9 4 7 6 4 6 15 17 18 18 18 16 14 12 12 13 13 12 11 12 11
6 6 5 7 7 8 9 9 9 12 8 7 5 6 6 4 4 10 14 18 19 18 18 16 14 12 12 12 12 11 10 10 9
6 4 6 7 8 7 8 5 4 9 9 10 5 7 5 3 4 7 10 17 18 18 17 15 14 12 12 12 10 10 9 10 9
6 5 5 6 6 8 6 5 5 4 7 7 5 5 7 9 4 3 4 13 15 17 19 16 13 12 12 11 10 9 9 9 8
4 4 6 6 6 6 6 6 6 5 6 6 3 6 8 8 13 7 7 12 14 15 18 16 14 12 11 10 9 9 7 7 7
4 7 5 6 6 5 7 6 5 4 4 6 2 6 10 10 10 7 5 6 9 14 16 15 13 13 11 9 8 7 7 7 6
8 7 8 5 3 5 6 7 5 4 4 5 4 1 8 12 6 4 7 7 8 10 13 15 15 12 9 8 7 6 6 6 6
9 8 7 9 5 6 7 6 6 5 4 5 4 3 1 9 9 11 9 8 9 7 11 11 12 13 10 7 6 5 4 4 4
8 7 8 9 7 4 5 8 6 5 5 8 5 4 5 5 5 7 7 8 9 10 10 10 8 12 10 7 5 4 3 3 3
8 6 7 7 8 10 10 9 13 6 5 5 4 4 6 4 5 2 5 6 6 6 6 7 7 7 10 6 4 3 2 3 3
7 7 8 12 8 9 13 12 7 5 9 3 3 3 1 3 4 3 3 4 4 5 5 7 7 6 4 5 5 5 4 5 6
9 8 9 10 9 8 10 10 12 7 9 12 6 4 4 3 2 2 1 2 3 4 5 6 6 5 5 4 4 4 5 5 7
9 11 9 9 7 10 11 10 10 10 11 5 3 5 6 4 3 1 2 1 2 3 3 5 6 5 4 4 5 3 4 6 7
8 8 9 9 9 13 14 12 12 11 12 9 6 3 3 7 6 5 6 4 3 4 5 6 6 6 5 4 4 2 4 6 8
Wind_Direction
152 131 128 123 124 144 144 139 136 133 132 133 133 132 138 195 127 114 113 107 95 96 94 98 98 94 90 89 88 85 85 79 80
135 132 128 130 143 158 155 141 145 139 142 145 145 149 170 161 120 110 131 108 109 106 106 103 99 97 94 94 94 94 91 90 86
142 139 137 139 151 167 165 152 154 152 153 148 152 147 201 157 134 139 119 121 109 104 96 98 94 92 91 90 89 88 91 86 85
145 146 135 135 165 178 175 169 168 154 146 144 140 131 127 129 107 119 117 126 117 112 103 97 95 96 98 95 94 90 86 84 83
150 131 134 160 174 188 180 187 170 150 153 130 126 119 132 137 150 183 120 142 126 113 107 103 109 98 94 93 88 89 87 86 82
157 124 143 163 184 187 197 188 159 137 150 137 129 146 145 159 200 118 142 140 126 125 119 112 103 97 95 95 95 88 91 86 81
192 138 139 183 207 185 204 192 151 171 163 142 134 162 176 189 183 118 149 145 129 128 120 113 104 102 105 99 97 94 94 83 84
181 164 166 187 208 183 203 178 181 189 167 153 163 202 185 201 202 141 147 137 132 129 122 114 118 114 106 104 101 97 97 91 81
189 182 185 201 185 191 176 154 192 183 174 157 172 195 181 168 122 118 145 132 130 127 120 119 119 120 113 107 109 104 88 85 77
183 181 188 197 188 187 169 159 140 198 163 151 182 188 169 135 110 106 143 122 130 136 125 122 128 120 115 108 103 90 92 83 80
162 174 191 193 211 192 161 146 143 143 159 140 212 205 147 144 140 151 137 133 135 140 128 133 132 127 120 106 101 88 83 78 70
185 180 185 188 183 164 144 125 132 129 133 157 143 224 157 146 143 135 138 123 143 138 135 139 135 123 114 111 99 93 84 69 57
177 195 167 143 128 159 165 142 125 127 161 146 141 165 168 148 140 138 151 163 150 132 140 144 138 126 115 112 109 99 85 69 50
178 192 170 150 147 161 163 136 130 129 133 98 76 44 320 168 166 170 168 154 151 139 128 124 124 127 117 115 101 87 78 63 38
187 183 171 161 133 149 140 130 108 115 134 96 58 34 19 347 173 157 144 136 135 136 136 130 107 112 118 111 103 98 84 54 16
186 171 167 158 177 166 166 135 126 104 124 102 59 52 44 45 44 79 120 129 117 124 131 133 139 116 111 99 80 63 33 6 351
184 178 179 180 167 168 175 164 141 123 157 145 136 128 59 37 50 71 79 106 133 106 131 140 138 134 126 96 68 42 21 355 343
196 190 179 179 162 176 180 174 164 146 180 170 137 146 187 124 2 39 56 110 108 119 102 140 134 139 121 139 113 43 13 355 341
209 209 188 183 187 185 183 185 184 163 176 166 178 155 142 137 180 22 268 115 140 126 140 165 142 150 152 118 86 44 3 343 337
200 197 199 187 185 187 190 185 196 188 170 191 157 182 146 191 154 162 176 195 193 181 180 177 166 163 167 165 109 56 357 343 333